CW0350 Weather Reports


time (UTC)temp
F
wind
direction
speed
knots
gust
knots
rain 1hr
in
rain 24hr
in
rain mn
in
humidity
%
barometer
mb
20260505083306 62 218 1.7 1.7 0.00 0.00 0.00 68 1014.9
20260505082802 62 215 0.9 0.9 0.00 0.00 0.00 68 1014.9
20260505082259 62 291 0.0 0.9 0.00 0.00 0.00 67 1014.9
20260505081755 62 294 0.0 0.9 0.00 0.00 0.00 67 1015.1
20260505081252 62 312 0.0 0.9 0.00 0.00 0.00 67 1015.1
20260505080749 62 304 0.0 0.0 0.00 0.00 0.00 68 1015.0
20260505080244 62 354 0.0 0.9 0.00 0.00 0.00 67 1014.8
20260505075740 62 304 0.0 0.0 0.00 0.00 0.00 67 1014.7
20260505075238 62 200 0.0 0.9 0.00 0.00 0.00 67 1014.9
20260505074735 62 280 0.9 1.7 0.00 0.00 0.00 67 1014.9
20260505074232 63 204 0.9 0.9 0.00 0.00 0.00 67 1014.7
20260505073729 63 271 0.0 0.0 0.00 0.00 0.00 66 1014.9
20260505073227 63 288 0.0 0.0 0.00 0.00 0.00 66 1014.9
20260505072723 63 343 0.0 0.0 0.00 0.00 0.00 66 1014.7
20260505072219 63 171 0.9 1.7 0.00 0.00 0.00 66 1014.8
20260505071715 63 289 0.9 0.9 0.00 0.00 0.00 66 1014.6
20260505071212 63 333 0.0 0.0 0.00 0.00 0.00 66 1014.5
20260505070710 63 200 0.9 1.7 0.00 0.00 0.00 67 1014.7
20260505070206 63 232 2.6 3.5 0.00 0.00 0.00 68 1014.4
20260505065702 63 274 0.9 0.9 0.00 0.00 0.00 67 1014.6
20260505065159 63 278 0.9 1.7 0.00 0.00 0.00 66 1014.6
20260505064656 63 249 0.0 0.9 0.00 0.00 0.00 66 1014.5
20260505064154 63 270 1.7 1.7 0.00 0.00 0.00 67 1014.6
20260505063651 64 311 0.0 0.0 0.00 0.00 0.00 66 1014.6
20260505063147 64 287 0.0 0.0 0.00 0.00 0.00 66 1014.5
20260505062643 64 174 0.9 0.9 0.00 0.00 0.00 66 1014.6
20260505062141 64 300 0.9 0.9 0.00 0.00 0.00 66 1014.6
20260505061638 64 291 0.9 1.7 0.00 0.00 0.00 65 1014.7
20260505061136 64 204 0.0 0.9 0.00 0.00 0.00 66 1014.6
20260505060633 64 260 1.7 1.7 0.00 0.00 0.00 65 1014.5
20260505060130 64 226 0.0 0.0 0.00 0.00 0.00 66 1014.6
20260505055625 64 281 0.0 0.9 0.00 0.00 0.00 65 1014.6
20260505055122 64 290 0.0 0.0 0.00 0.00 0.00 65 1014.6
20260505054619 65 304 0.0 0.0 0.00 0.00 0.00 65 1014.8
20260505054117 65 280 0.9 0.9 0.00 0.00 0.00 65 1014.5
20260505053614 65 287 0.9 1.7 0.00 0.00 0.00 64 1014.8
20260505053111 65 220 1.7 1.7 0.00 0.00 0.00 64 1014.5
20260505052608 65 232 1.7 1.7 0.00 0.00 0.00 64 1014.7
20260505052105 65 121 1.7 1.7 0.00 0.00 0.00 64 1014.7
20260505051602 65 148 1.7 2.6 0.00 0.00 0.00 64 1014.8
20260505051100 65 195 0.9 2.6 0.00 0.00 0.00 65 1014.5
20260505050558 65 247 1.7 1.7 0.00 0.00 0.00 65 1014.5
20260505041525 66 237 2.6 2.6 0.00 0.00 0.00 63 1014.6
20260505041023 66 216 0.9 0.9 0.00 0.00 0.00 63 1014.5
20260505040520 66 299 1.7 2.6 0.00 0.00 0.00 63 1014.5
20260505040017 67 204 1.7 1.7 0.00 0.00 0.00 63 1014.6
20260505035513 67 235 3.5 3.5 0.00 0.00 0.00 63 1014.6
20260505035010 67 193 1.7 2.6 0.00 0.00 0.00 65 1014.6
20260505034506 67 240 2.6 3.5 0.00 0.00 0.00 62 1014.5
20260505034004 67 115 1.7 2.6 0.00 0.00 0.00 64 1014.6
20260505033500 67 250 5.2 6.1 0.00 0.00 0.00 63 1014.5
20260505032959 67 193 3.5 3.5 0.00 0.00 0.00 64 1014.7
20260505032456 67 150 1.7 2.6 0.00 0.00 0.00 64 1014.5
20260505031952 67 165 2.6 2.6 0.00 0.00 0.00 64 1014.5
20260505031449 67 231 2.6 3.5 0.00 0.00 0.00 64 1014.5
20260505030946 67 281 0.9 1.7 0.00 0.00 0.00 64 1014.5
20260505030442 67 203 1.7 2.6 0.00 0.00 0.00 65 1014.4
20260505025937 67 202 1.7 1.7 0.00 0.00 0.00 65 1014.4
20260505025435 68 71 2.6 2.6 0.00 0.00 0.00 67 1014.3
20260505024934 68 182 2.6 2.6 0.00 0.00 0.00 67 1014.5
20260505024431 68 183 2.6 2.6 0.00 0.00 0.00 67 1014.3
20260505023927 68 184 2.6 2.6 0.00 0.00 0.00 66 1014.2
20260505023425 68 182 1.7 2.6 0.00 0.00 0.00 66 1014.2
20260505022922 68 173 2.6 2.6 0.00 0.00 0.00 66 1014.1
20260505022420 68 171 1.7 2.6 0.00 0.00 0.00 65 1014.0
20260505021916 68 189 2.6 3.5 0.00 0.00 0.00 65 1014.0
20260505021413 68 221 3.5 6.1 0.00 0.00 0.00 63 1013.9
20260505020908 68 199 2.6 2.6 0.00 0.00 0.00 61 1013.9
20260505020404 68 193 1.7 2.6 0.00 0.00 0.00 60 1013.9
20260505015901 68 180 2.6 3.5 0.00 0.00 0.00 58 1013.8
20260505015358 68 163 1.7 1.7 0.00 0.00 0.00 60 1013.9
20260505014856 68 189 0.9 1.7 0.00 0.00 0.00 59 1013.7
20260505014352 68 194 3.5 3.5 0.00 0.00 0.00 61 1013.6
20260505013849 68 185 1.7 1.7 0.00 0.00 0.00 65 1013.7
20260505013346 68 217 0.9 0.9 0.00 0.00 0.00 61 1013.8
20260505012845 68 255 0.0 0.9 0.00 0.00 0.00 53 1013.6
20260505012342 68 280 0.9 0.9 0.00 0.00 0.00 51 1013.8
20260505011838 68 224 0.9 0.9 0.00 0.00 0.00 54 1013.7
20260505011335 69 241 0.9 0.9 0.00 0.00 0.00 57 1013.5
20260505010831 69 208 0.9 1.7 0.00 0.00 0.00 53 1013.5
20260505010327 70 273 0.0 0.9 0.00 0.00 0.00 45 1013.5
20260505005823 70 271 0.0 0.9 0.00 0.00 0.00 45 1013.5
20260505005320 70 239 0.9 0.9 0.00 0.00 0.00 44 1013.6
20260505004818 70 278 0.9 0.9 0.00 0.00 0.00 44 1013.4
20260505004314 71 288 0.0 0.0 0.00 0.00 0.00 44 1013.3
20260505003811 71 279 0.0 0.9 0.00 0.00 0.00 44 1013.3
20260505003309 71 272 0.9 0.9 0.00 0.00 0.00 43 1013.2
20260505002804 71 289 0.0 0.9 0.00 0.00 0.00 44 1013.0
20260505002303 71 273 0.9 0.9 0.00 0.00 0.00 43 1012.9
20260505001800 71 231 0.0 0.9 0.00 0.00 0.00 44 1012.9
20260505001257 71 254 0.0 0.9 0.00 0.00 0.00 43 1012.9
20260505000754 71 267 0.0 0.9 0.00 0.00 0.00 43 1012.8
20260505000252 71 296 0.0 0.0 0.00 0.00 0.00 44 1013.0
20260504235748 72 297 0.0 0.0 0.00 0.00 0.00 43 1013.1
20260504235244 72 308 0.0 0.0 0.00 0.00 0.00 43 1012.8
20260504234742 72 231 0.9 1.7 0.00 0.00 0.00 42 1012.8
20260504234239 72 292 0.0 0.0 0.00 0.00 0.00 42 1012.7
20260504233735 73 289 0.0 0.0 0.00 0.00 0.00 42 1012.7
20260504233231 73 293 0.0 0.0 0.00 0.00 0.00 41 1012.6
20260504232728 73 261 0.9 1.7 0.00 0.00 0.00 40 1012.5
20260504232225 74 283 0.0 0.0 0.00 0.00 0.00 40 1012.4
20260504231722 74 298 0.0 0.0 0.00 0.00 0.00 41 1012.3
20260504231219 74 217 1.7 2.6 0.00 0.00 0.00 39 1012.5
20260504230715 75 288 0.0 0.9 0.00 0.00 0.00 39 1012.5
20260504230214 75 242 1.7 1.7 0.00 0.00 0.00 38 1012.4
20260504225712 75 157 2.6 2.6 0.00 0.00 0.00 38 1012.4
20260504225207 75 237 0.9 0.9 0.00 0.00 0.00 38 1012.5
20260504224705 75 281 0.9 0.9 0.00 0.00 0.00 38 1012.3
20260504224201 75 254 0.9 0.9 0.00 0.00 0.00 39 1012.3
20260504223658 75 295 0.0 0.9 0.00 0.00 0.00 39 1012.5
20260504223154 75 208 0.9 1.7 0.00 0.00 0.00 38 1012.5
20260504222651 75 273 0.9 0.9 0.00 0.00 0.00 38 1012.5
20260504222147 75 180 0.9 0.9 0.00 0.00 0.00 38 1012.3
20260504221645 75 298 0.0 0.0 0.00 0.00 0.00 38 1012.5
20260504221142 76 289 0.9 1.7 0.00 0.00 0.00 37 1012.6
20260504220638 76 184 1.7 2.6 0.00 0.00 0.00 37 1012.8
20260504220136 76 271 1.7 1.7 0.00 0.00 0.00 38 1012.5
20260504215632 76 190 2.6 2.6 0.00 0.00 0.00 36 1012.5
20260504215130 76 291 0.0 0.9 0.00 0.00 0.00 38 1012.7
20260504214626 76 189 1.7 1.7 0.00 0.00 0.00 37 1012.6
20260504214122 76 200 1.7 2.6 0.00 0.00 0.00 37 1012.6
20260504213619 76 314 0.0 0.0 0.00 0.00 0.00 37 1012.6
20260504213116 76 192 1.7 2.6 0.00 0.00 0.00 38 1012.5
20260504212612 76 34 0.9 0.9 0.00 0.00 0.00 39 1012.6
20260504212109 77 219 2.6 2.6 0.00 0.00 0.00 39 1012.6
20260504211606 76 306 0.9 0.9 0.00 0.00 0.00 38 1012.5
20260504211102 76 271 3.5 3.5 0.00 0.00 0.00 36 1012.7
20260504210600 76 229 1.7 1.7 0.00 0.00 0.00 40 1012.7
20260504210056 75 233 1.7 1.7 0.00 0.00 0.00 37 1012.7
20260504205554 75 204 1.7 1.7 0.00 0.00 0.00 44 1012.5
20260504205052 76 161 3.5 5.2 0.00 0.00 0.00 40 1012.7
20260504204549 76 184 2.6 3.5 0.00 0.00 0.00 37 1012.8
20260504204049 76 171 1.7 2.6 0.00 0.00 0.00 40 1012.7
20260504203546 76 197 2.6 5.2 0.00 0.00 0.00 37 1012.8
20260504203043 76 265 1.7 1.7 0.00 0.00 0.00 36 1012.7
20260504202539 75 169 2.6 3.5 0.00 0.00 0.00 38 1012.9
20260504202036 75 238 1.7 2.6 0.00 0.00 0.00 39 1012.9
20260504201533 75 204 1.7 2.6 0.00 0.00 0.00 41 1012.9
20260504201031 74 212 2.6 2.6 0.00 0.00 0.00 41 1013.2
20260504200527 75 219 1.7 1.7 0.00 0.00 0.00 42 1013.0
20260504200024 75 183 2.6 3.5 0.00 0.00 0.00 41 1013.0
20260504195520 77 238 3.5 3.5 0.00 0.00 0.00 36 1013.2
20260504195017 76 235 1.7 1.7 0.00 0.00 0.00 35 1013.4
20260504194513 77 274 1.7 2.6 0.00 0.00 0.00 34 1013.5
20260504194008 77 142 0.9 1.7 0.00 0.00 0.00 33 1013.4
20260504193506 77 214 2.6 2.6 0.00 0.00 0.00 32 1013.6
20260504193005 77 196 3.5 5.2 0.00 0.00 0.00 30 1013.6
20260504192502 77 230 1.7 2.6 0.00 0.00 0.00 35 1013.8
20260504192000 76 239 0.9 1.7 0.00 0.00 0.00 37 1013.6
20260504191458 75 192 3.5 5.2 0.00 0.00 0.00 37 1013.6
20260504190953 76 169 1.7 2.6 0.00 0.00 0.00 37 1013.6
20260504190449 75 299 0.9 1.7 0.00 0.00 0.00 37 1013.9
20260504185946 75 163 1.7 2.6 0.00 0.00 0.00 43 1013.9
20260504185443 74 139 1.7 1.7 0.00 0.00 0.00 39 1014.0
20260504184939 74 173 1.7 3.5 0.00 0.00 0.00 44 1014.0
20260504184435 75 233 0.9 0.9 0.00 0.00 0.00 39 1014.2
20260504183931 75 179 2.6 2.6 0.00 0.00 0.00 37 1014.2
20260504183428 76 257 1.7 2.6 0.00 0.00 0.00 36 1014.3
20260504182926 76 195 2.6 3.5 0.00 0.00 0.00 40 1014.4
20260504182423 75 353 0.0 0.0 0.00 0.00 0.00 36 1014.5
20260504181920 75 318 0.9 0.9 0.00 0.00 0.00 37 1014.4
20260504181417 75 174 0.9 1.7 0.00 0.00 0.00 38 1014.6
20260504180916 77 1 1.7 2.6 0.00 0.00 0.00 35 1014.6
20260504180414 77 231 0.9 1.7 0.00 0.00 0.00 35 1014.7
20260504175912 76 69 0.9 0.9 0.00 0.00 0.00 33 1014.6
20260504175409 76 177 2.6 2.6 0.00 0.00 0.00 34 1014.8
20260504174906 76 161 2.6 3.5 0.00 0.00 0.00 35 1014.7
20260504174404 75 194 0.9 1.7 0.00 0.00 0.00 34 1014.7
20260504173901 77 180 3.5 3.5 0.00 0.00 0.00 32 1014.8
20260504173357 76 180 0.9 2.6 0.00 0.00 0.00 35 1014.8
20260504172855 75 215 0.9 0.9 0.00 0.00 0.00 34 1014.8
20260504172351 76 210 2.6 2.6 0.00 0.00 0.00 33 1014.9
20260504171847 76 173 2.6 2.6 0.00 0.00 0.00 35 1015.1
20260504171344 74 314 0.0 0.9 0.00 0.00 0.00 36 1015.1
20260504170842 75 186 2.6 3.5 0.00 0.00 0.00 37 1015.2
20260504170338 74 221 2.6 2.6 0.00 0.00 0.00 35 1015.1
20260504160256 73 156 1.7 1.7 0.00 0.00 0.00 38 1015.9
20260504150722 71 178 1.7 2.6 0.00 0.00 0.00 45 1016.2
20260504150218 70 329 0.0 0.9 0.00 0.00 0.00 44 1016.1
20260504141148 68 318 0.9 0.9 0.00 0.00 0.00 51 1016.4
20260504140645 68 227 0.9 1.7 0.00 0.00 0.00 51 1016.3
20260504140140 66 298 0.9 0.9 0.00 0.00 0.00 54 1016.4
20260504130609 62 289 1.7 2.6 0.00 0.00 0.00 59 1017.1
20260504130105 61 338 0.9 0.9 0.00 0.00 0.00 61 1017.0
20260504110456 55 269 0.9 0.9 0.00 0.00 0.00 67 1017.1
20260504100418 54 259 0.9 0.9 0.00 0.00 0.00 70 1017.0